TimeEDT,TemperatureF,Dew PointF,Humidity,Sea Level PressureIn,VisibilityMPH,Wind Direction,Wind SpeedMPH,Gust SpeedMPH,PrecipitationIn,Events,Conditions,WindDirDegrees,DateUTC
12:15 AM,69.8,64.4,83,30.05,10.0,West,3.5,-,N/A,,Clear,260,2012-09-23 04:15:00
12:35 AM,69.8,64.4,83,30.05,10.0,West,4.6,-,N/A,,Clear,270,2012-09-23 04:35:00
12:55 AM,69.8,64.4,83,30.05,10.0,West,4.6,-,N/A,,Clear,270,2012-09-23 04:55:00
1:15 AM,69.8,64.4,83,30.04,10.0,West,3.5,-,N/A,,Clear,270,2012-09-23 05:15:00
1:35 AM,69.8,64.4,83,30.05,10.0,WNW,3.5,-,N/A,,Clear,290,2012-09-23 05:35:00
1:55 AM,69.8,64.4,83,30.05,10.0,WNW,3.5,-,N/A,,Clear,300,2012-09-23 05:55:00
2:15 AM,69.8,64.4,83,30.05,10.0,NW,3.5,-,N/A,,Clear,310,2012-09-23 06:15:00
2:35 AM,68.0,64.4,88,30.05,10.0,NW,5.8,-,N/A,,Clear,320,2012-09-23 06:35:00
2:55 AM,68.0,64.4,88,30.05,10.0,NNW,5.8,-,N/A,,Clear,330,2012-09-23 06:55:00
3:15 AM,68.0,64.4,88,30.05,10.0,NNW,4.6,-,N/A,,Clear,330,2012-09-23 07:15:00
3:35 AM,68.0,62.6,83,30.05,10.0,NNW,3.5,-,N/A,,Clear,340,2012-09-23 07:35:00
3:55 AM,68.0,62.6,83,30.05,10.0,NNW,3.5,-,N/A,,Clear,330,2012-09-23 07:55:00
4:15 AM,68.0,60.8,78,30.06,10.0,NNW,4.6,-,N/A,,Clear,340,2012-09-23 08:15:00
4:35 AM,68.0,60.8,78,30.06,10.0,NNW,3.5,-,N/A,,Clear,330,2012-09-23 08:35:00
4:55 AM,68.0,60.8,78,30.06,10.0,North,3.5,-,N/A,,Clear,350,2012-09-23 08:55:00
5:15 AM,66.2,59.0,78,30.07,10.0,North,4.6,-,N/A,,Clear,350,2012-09-23 09:15:00
5:35 AM,66.2,59.0,78,30.08,10.0,Calm,Calm,-,N/A,,Clear,0,2012-09-23 09:35:00
5:55 AM,64.4,59.0,83,30.08,10.0,NNW,4.6,-,N/A,,Clear,330,2012-09-23 09:55:00
6:15 AM,62.6,59.0,88,30.09,10.0,NNW,4.6,-,N/A,,Clear,330,2012-09-23 10:15:00
6:35 AM,62.6,55.4,77,30.10,10.0,NNW,3.5,-,N/A,,Clear,340,2012-09-23 10:35:00
6:55 AM,62.6,57.2,82,30.11,10.0,NNW,4.6,-,N/A,,Clear,330,2012-09-23 10:55:00
7:15 AM,62.6,53.6,72,30.11,10.0,NNW,3.5,-,N/A,,Clear,340,2012-09-23 11:15:00
7:35 AM,62.6,53.6,72,30.12,10.0,North,3.5,-,N/A,,Clear,350,2012-09-23 11:35:00
7:55 AM,62.6,53.6,72,30.12,10.0,NNW,4.6,-,N/A,,Clear,340,2012-09-23 11:55:00
8:15 AM,62.6,53.6,72,30.13,10.0,NNW,4.6,-,N/A,,Clear,340,2012-09-23 12:15:00
8:35 AM,64.4,53.6,68,30.14,10.0,NNW,5.8,-,N/A,,Clear,340,2012-09-23 12:35:00
8:55 AM,66.2,53.6,64,30.14,10.0,North,5.8,-,N/A,,Clear,350,2012-09-23 12:55:00
9:35 AM,69.8,51.8,53,30.15,10.0,North,8.1,-,N/A,,Clear,360,2012-09-23 13:35:00
9:55 AM,71.6,51.8,50,30.15,10.0,NNE,5.8,-,N/A,,Clear,30,2012-09-23 13:55:00
10:15 AM,71.6,50.0,46,30.16,10.0,NNE,5.8,-,N/A,,Clear,20,2012-09-23 14:15:00
10:35 AM,73.4,50.0,44,30.16,10.0,NNE,8.1,-,N/A,,Clear,30,2012-09-23 14:35:00
10:55 AM,75.2,51.8,44,30.16,10.0,NE,10.4,-,N/A,,Clear,40,2012-09-23 14:55:00
11:15 AM,77.0,50.0,39,30.16,10.0,North,6.9,-,N/A,,Clear,360,2012-09-23 15:15:00
11:35 AM,77.0,46.4,34,30.16,10.0,NNE,5.8,-,N/A,,Clear,20,2012-09-23 15:35:00
11:55 AM,78.8,44.6,30,30.15,10.0,NE,9.2,17.3,N/A,,Clear,40,2012-09-23 15:55:00
12:15 PM,78.8,42.8,28,30.15,10.0,NNE,5.8,-,N/A,,Clear,30,2012-09-23 16:15:00
12:55 PM,80.6,41.0,24,30.14,10.0,North,8.1,-,N/A,,Clear,10,2012-09-23 16:55:00
1:15 PM,80.6,39.2,23,30.14,10.0,NNW,8.1,17.3,N/A,,Clear,340,2012-09-23 17:15:00
1:35 PM,80.6,39.2,23,30.14,10.0,North,9.2,-,N/A,,Clear,10,2012-09-23 17:35:00
1:55 PM,82.4,41.0,23,30.13,10.0,North,9.2,18.4,N/A,,Clear,360,2012-09-23 17:55:00
2:15 PM,82.4,41.0,23,30.12,10.0,NNW,10.4,-,N/A,,Clear,340,2012-09-23 18:15:00
2:35 PM,82.4,41.0,23,30.12,10.0,NW,9.2,-,N/A,,Clear,320,2012-09-23 18:35:00
2:55 PM,82.4,41.0,23,30.11,10.0,North,5.8,17.3,N/A,,Clear,10,2012-09-23 18:55:00
3:15 PM,82.4,42.8,25,30.11,10.0,North,9.2,-,N/A,,Clear,360,2012-09-23 19:15:00
3:35 PM,82.4,42.8,25,30.10,10.0,NNW,6.9,-,N/A,,Clear,340,2012-09-23 19:35:00
3:55 PM,82.4,41.0,23,30.10,10.0,NNW,9.2,-,N/A,,Clear,340,2012-09-23 19:55:00
4:15 PM,82.4,41.0,23,30.10,10.0,North,9.2,-,N/A,,Clear,350,2012-09-23 20:15:00
4:35 PM,82.4,41.0,23,30.09,10.0,North,8.1,-,N/A,,Clear,10,2012-09-23 20:35:00
4:55 PM,82.4,42.8,25,30.09,10.0,NNW,9.2,-,N/A,,Clear,330,2012-09-23 20:55:00
5:15 PM,82.4,41.0,23,30.09,10.0,North,9.2,-,N/A,,Clear,350,2012-09-23 21:15:00
5:35 PM,82.4,41.0,23,30.09,10.0,NNW,8.1,-,N/A,,Clear,330,2012-09-23 21:35:00
5:55 PM,80.6,42.8,26,30.09,10.0,North,3.5,-,N/A,,Clear,350,2012-09-23 21:55:00
6:15 PM,80.6,44.6,28,30.09,10.0,NNW,4.6,-,N/A,,Clear,340,2012-09-23 22:15:00
6:35 PM,78.8,44.6,30,30.09,10.0,NNW,4.6,-,N/A,,Clear,340,2012-09-23 22:35:00
6:55 PM,77.0,48.2,36,30.09,10.0,Calm,Calm,-,N/A,,Clear,0,2012-09-23 22:55:00
7:15 PM,77.0,46.4,34,30.09,10.0,Calm,Calm,-,N/A,,Clear,0,2012-09-23 23:15:00
7:35 PM,71.6,53.6,53,30.09,10.0,Calm,Calm,-,N/A,,Clear,0,2012-09-23 23:35:00
7:55 PM,62.6,55.4,77,30.10,10.0,Calm,Calm,-,N/A,,Clear,0,2012-09-23 23:55:00
8:15 PM,62.6,57.2,82,30.10,10.0,Calm,Calm,-,N/A,,Clear,0,2012-09-24 00:15:00
8:35 PM,62.6,55.4,77,30.11,10.0,Calm,Calm,-,N/A,,Clear,0,2012-09-24 00:35:00
8:55 PM,60.8,57.2,88,30.11,10.0,Calm,Calm,-,N/A,,Clear,0,2012-09-24 00:55:00
9:15 PM,60.8,55.4,82,30.12,10.0,Calm,Calm,-,N/A,,Clear,0,2012-09-24 01:15:00
9:35 PM,59.0,55.4,88,30.12,10.0,Calm,Calm,-,N/A,,Clear,0,2012-09-24 01:35:00
9:55 PM,59.0,55.4,88,30.12,10.0,Calm,Calm,-,N/A,,Clear,0,2012-09-24 01:55:00
10:15 PM,59.0,55.4,88,30.12,10.0,NW,3.5,-,N/A,,Clear,310,2012-09-24 02:15:00
10:35 PM,57.2,55.4,94,30.13,10.0,Calm,Calm,-,N/A,,Clear,0,2012-09-24 02:35:00
10:55 PM,59.0,55.4,88,30.13,10.0,Calm,Calm,-,N/A,,Clear,0,2012-09-24 02:55:00
11:15 PM,55.4,53.6,94,30.13,10.0,Calm,Calm,-,N/A,,Clear,0,2012-09-24 03:15:00
11:35 PM,55.4,53.6,94,30.13,10.0,Calm,Calm,-,N/A,,Clear,0,2012-09-24 03:35:00
11:55 PM,57.2,53.6,88,30.13,10.0,Calm,Calm,-,N/A,,Clear,0,2012-09-24 03:55:00